Weather History for KSTC - August, 2012

Change the Weather History Date:

Saturday, August 4, 2012

  Actual Average Record
Temperature  
Mean Temperature 68 °F 70 °F  
Max Temperature 78 °F 82 °F 103 °F (1947)
Min Temperature 58 °F 58 °F 42 °F (1992)
Degree Days  
Heating Degree Days 0 1  
Month to date heating degree days 0 4  
Since 1 June heating degree days 30 99  
Since 1 July heating degree days 0 21  
Cooling Degree Days 3 5  
Month to date cooling degree days 40 20  
Year to date cooling degree days 605 322  
Since 1 June cooling degree days 554 297  
Growing Degree Days 20 (Base 50)    
Moisture  
Dew Point 60 °F    
Average Humidity 68    
Maximum Humidity 93    
Minimum Humidity 43    
Precipitation  
Precipitation 0.00 in 0.11 in 3.27 in (1958)
Month to date precipitation 0.60 0.43  
Year to date precipitation 20.87 16.22  
Snow  
Snow 0.00 in 0.00 in 0.00 in ()
Month to date snowfall 0.0 0.0  
Since 1 June snowfall 0.0 0.0  
Since 1 July snowfall 0.0 0.0  
Snow Depth 0.00 in    
Sea Level Pressure  
Sea Level Pressure 29.85 in    
Wind  
Wind Speed 9 mph (West)    
Max Wind Speed 23 mph    
Max Gust Speed 28 mph    
Visibility 10 miles    
Events      
T = Trace of Precipitation, MM = Missing Value Source: NWS Daily Summary

Daily Weather History Graph

Daily Weather History Graph

Search for Another Location

Airport or City:

Trip Planner

Search our weather history database for the weather conditions in past years. The results will help you decide how hot, cold, wet, or windy it might be!

Date:

Astronomy

Aug. 04, 2012 Rise Set
Actual Time 6:04 AM CDT 8:39 PM CDT
Civil Twilight 5:30 AM CDT 9:13 PM CDT
Nautical Twilight 4:47 AM CDT 9:55 PM CDT
Astronomical Twilight 3:59 AM CDT 10:43 PM CDT
Moon 9:35 PM CDT (8/4) 9:04 AM CDT (8/4)
Length of Visible Light 15h 42m
Length of Day
14h 35m
Waning Gibbous, 92% of the Moon is Illuminated
Aug 4
Waning Gibbous
Aug 9
Last Quarter
Aug 17
New
Aug 24
First Quarter
Aug 31
Full

Hourly Weather History & Observations

Time (CDT) Temp. Dew Point Humidity Pressure Visibility Wind Dir Wind Speed Gust Speed Precip Events Conditions
12:01 AM 66.2 °F 62.6 °F 88% 29.74 in 10.0 mi East 5.8 mph - 0.00 in   Scattered Clouds
12:32 AM 66.2 °F 64.4 °F 94% 29.79 in 10.0 mi SSW 10.4 mph - 0.00 in   Clear
12:53 AM 66.0 °F 64.0 °F 93% 29.78 in 10.0 mi South 3.5 mph - 0.00 in   Clear
1:53 AM 64.9 °F 63.0 °F 93% 29.80 in 10.0 mi Calm Calm - N/A   Partly Cloudy
2:53 AM 64.9 °F 63.0 °F 93% 29.83 in 9.0 mi NE 3.5 mph - N/A   Mostly Cloudy
3:53 AM 64.9 °F 63.0 °F 93% 29.81 in 10.0 mi Calm Calm - N/A   Overcast
4:53 AM 66.0 °F 64.0 °F 93% 29.81 in 10.0 mi Calm Calm - N/A   Overcast
5:41 AM 66.2 °F 64.4 °F 94% 29.82 in 10.0 mi West 4.6 mph - N/A   Overcast
5:53 AM 66.0 °F 64.0 °F 93% 29.81 in 10.0 mi West 4.6 mph - N/A   Overcast
6:04 AM 66.2 °F 62.6 °F 88% 29.80 in 10.0 mi West 4.6 mph - N/A   Overcast
6:19 AM 66.2 °F 64.4 °F 94% 29.79 in 10.0 mi West 5.8 mph - N/A   Overcast
6:29 AM 66.2 °F 64.4 °F 94% 29.80 in 10.0 mi West 6.9 mph - N/A   Mostly Cloudy
6:43 AM 66.2 °F 62.6 °F 88% 29.80 in 10.0 mi West 8.1 mph - N/A   Mostly Cloudy
6:53 AM 66.0 °F 63.0 °F 90% 29.80 in 10.0 mi West 6.9 mph - N/A   Scattered Clouds
7:16 AM 66.2 °F 64.4 °F 94% 29.78 in 10.0 mi WSW 5.8 mph - N/A   Mostly Cloudy
7:53 AM 66.9 °F 64.0 °F 90% 29.80 in 8.0 mi WSW 8.1 mph - N/A   Mostly Cloudy
8:53 AM 66.2 °F 60.8 °F 83% 29.83 in 10.0 mi West 9.2 mph - N/A   Overcast
9:04 AM 66.2 °F 60.8 °F 83% 29.84 in 10.0 mi West 9.2 mph - N/A   Mostly Cloudy
9:53 AM 66.0 °F 57.9 °F 75% 29.88 in 10.0 mi West 9.2 mph - N/A   Clear
10:53 AM 66.9 °F 59.0 °F 76% 29.89 in 10.0 mi West 10.4 mph - N/A   Clear
11:53 AM 69.1 °F 57.9 °F 68% 29.87 in 10.0 mi West 10.4 mph - N/A   Clear
12:53 PM 73.0 °F 57.0 °F 57% 29.86 in 10.0 mi West 13.8 mph - N/A   Mostly Cloudy
1:53 PM 75.9 °F 55.0 °F 48% 29.86 in 10.0 mi West 13.8 mph 21.9 mph N/A   Scattered Clouds
2:53 PM 73.9 °F 53.1 °F 48% 29.86 in 10.0 mi West 13.8 mph 21.9 mph N/A   Scattered Clouds
3:53 PM 77.0 °F 54.0 °F 45% 29.86 in 10.0 mi West 16.1 mph - N/A   Mostly Cloudy
4:53 PM 75.9 °F 54.0 °F 46% 29.87 in 10.0 mi West 12.7 mph 19.6 mph N/A   Overcast
5:53 PM 77.0 °F 55.0 °F 47% 29.88 in 10.0 mi West 16.1 mph 26.5 mph N/A   Mostly Cloudy
6:53 PM 75.0 °F 55.0 °F 50% 29.89 in 10.0 mi West 17.3 mph 24.2 mph N/A   Partly Cloudy
7:53 PM 73.0 °F 54.0 °F 51% 29.90 in 10.0 mi WNW 10.4 mph 19.6 mph N/A   Clear
8:53 PM 70.0 °F 55.0 °F 59% 29.92 in 10.0 mi West 8.1 mph - N/A   Mostly Cloudy
9:53 PM 66.9 °F 57.0 °F 70% 29.94 in 10.0 mi NW 10.4 mph 18.4 mph N/A   Overcast
10:53 PM 64.0 °F 55.9 °F 75% 29.98 in 10.0 mi NW 12.7 mph 20.7 mph N/A   Clear
11:53 PM 61.0 °F 55.0 °F 81% 30.01 in 10.0 mi NW 10.4 mph - N/A   Clear